Regional Weather Roundup
Issued by NWS

Home | Current Version | Previous Version | Text Only | Print | Product List | Glossary Off
Versions: 1 2 3 4 5 6 7 8 9 10 11 12 13 14 15 16 17 18 19 20 21 22 23 24 25 26 27 28 29 30 31 32 33 34 35 36 37 38 39 40 41 42 43 44 45 46 47 48 49 50

000
ASUS45 KABQ 301201
RWRNM
NEW MEXICO REGIONAL WEATHER ROUNDUP
NATIONAL WEATHER SERVICE ALBUQUERQUE NM
600 AM MDT SUN APR 30 2017

NOTE: "FAIR" MEANS FEW OR NO CLOUDS BELOW 12,000 FEET AGL WITH NO
       SIGNIFICANT WEATHER OR OBSTRUCTIONS TO VISION.

      THIS PRODUCT IS RELEASED AS TWO VERSIONS.  ONE VERSION NEAR
      THE TOP OF THE HOUR CONTAINING PRELIMINARY DATA FROM ALBUQUERQUE
      AND OTHER STATIONS.  A FINAL VERSION WITH ADDITIONAL DATA IS
      ISSUED ABOUT 10 MINUTES AFTER THE HOUR.

NMZ501-503-504-510>518-301300-
NORTHWEST PLATEAU/NORTHCENTRAL MOUNTAINS

CITY           SKY/WX    TMP DP  RH WIND       PRES   REMARKS
FARMINGTON     FAIR      35  20  54 W14       30.03F WCI  26
6HR MIN TEMP:  34; 6HR MAX TEMP:  41;

LOS ALAMOS     FAIR      28  28 100 W3        29.99F
SANTA FE       CLOUDY    32  32 100 CALM      29.98F
6HR MIN TEMP:  30; 6HR MAX TEMP:  32; 6HR PCP: TRACE;

TAOS             N/A     25  14  63 N5        30.00S WCI  19
ANGEL FIRE     CLOUDY    24  19  80 N5        29.94S WCI  18

$$
NMZ402-403-502-505>509-301300-
WESTCENTRAL MOUNTAINS/SOUTHWEST MOUNTAINS

CITY           SKY/WX    TMP DP  RH WIND       PRES   REMARKS
GALLUP         FAIR      21  17  84 CALM      30.12S
6HR MIN TEMP:  18; 6HR MAX TEMP:  30;

GRANTS         FAIR      29  20  69 CALM      30.10R
SILVER CITY    FAIR      33  23  67 NW7       30.10R WCI  26

$$
NMZ407-409-411-412-301300-
SOUTHERN DESERTS

CITY           SKY/WX    TMP DP  RH WIND       PRES   REMARKS
DEMING         FAIR      36  25  64 W6        30.09F WCI  31
6HR MIN TEMP:  34; 6HR MAX TEMP:  46;

LAS CRUCES     FAIR      34  30  86 W3        30.08F
HOLLOMAN AFB   FAIR      34  33  99 SE6       30.09F WCI  28
ALAMOGORDO     FAIR      32  32 100 SE5       30.07F WCI  27
T OR C         FAIR      35  28  75 SW6       30.07S WCI  30
6HR MIN TEMP:  34; 6HR MAX TEMP:  40;


$$
NMZ519>523-301300-
CENTRAL VALLEYS/CENTRAL HIGHLANDS

CITY           SKY/WX    TMP DP  RH WIND       PRES   REMARKS
ALBUQUERQUE    MOCLDY    37  34  89 SW8       30.05R WCI  31
6HR MIN TEMP:  36; 6HR MAX TEMP:  37; 6HR PCP: TRACE;

DOUBLE EAGLE   MOCLDY    32  30  93 SW3       30.04
MORIARTY ARPT  FAIR      33  31  91 NW7       29.99F WCI  27
6HR MIN TEMP:  32; 6HR MAX TEMP:  35;

CLINES CORNERS NOT AVBL
BELEN          FAIR      33  33 100 CALM      30.05S FOG
6HR MIN TEMP:  32; 6HR MAX TEMP:  38;

SOCORRO        SNOW      33  32  98 SE7       30.05S VSB 1/4 WCI  27
6HR MIN TEMP:  32; 6HR MAX TEMP:  38;


$$
NMZ524>526-539-540-301300-
SOUTHCENTRAL MOUNTAINS

CITY           SKY/WX    TMP DP  RH WIND       PRES   REMARKS
RUIDOSO        NOT AVBL

$$
NMZ527>531-301300-
NORTHEAST HIGHLANDS/NORTHEAST PLAINS

CITY           SKY/WX    TMP DP  RH WIND       PRES   REMARKS
LAS VEGAS      FOG       17  16  95 VRB3      29.91S VSB 1/4
6HR MIN TEMP:  17; 6HR MAX TEMP:  25; 6HR PCP: TRACE;

RATON          CLOUDY    31  16  54 N14G20    29.90F WCI  21
6HR MIN TEMP:  27; 6HR MAX TEMP:  31; 6HR PCP: TRACE;

CLAYTON        MIX PCPN  30  27  88 NW28G41   29.81F FOG     WCI  15
6HR MIN TEMP:  29; 6HR MAX TEMP:  30; 6HR PCP:  0.06;


$$
NMZ532>537-301300-
EASTCENTRAL PLAINS

CITY           SKY/WX    TMP DP  RH WIND       PRES   REMARKS
SANTA ROSA     FAIR      32  32 100 CALM      29.95F
TUCUMCARI      LGT SNOW  35  31  85 NW15      29.94F FOG     WCI  25
6HR MIN TEMP:  34; 6HR MAX TEMP:  37; 6HR PCP: TRACE;

CANNON AFB     CLOUDY    35  35  99 NW21G28   29.93F WCI  23
6HR MIN TEMP:  33; 6HR MAX TEMP:  35; 6HR PCP: TRACE;

CLOVIS AIRPORT FAIR      34  27  75 NW20      29.92S WCI  22

$$
NMZ028-029-538-301300-
SOUTHEAST PLAINS

CITY           SKY/WX    TMP DP  RH WIND       PRES   REMARKS
ROSWELL        FAIR      34  30  85 S7          N/A  WCI  28
6HR MIN TEMP:  33; 6HR MAX TEMP:  38;

ARTESIA        FAIR      34  32  93 SW9       30.03F WCI  26
CARLSBAD       FAIR      35  32  88 W8        30.03F WCI  29
6HR MIN TEMP:  35; 6HR MAX TEMP:  40;

HOBBS          CLEAR     32  32 100 W9        30.01F WCI  24


$$



USA.gov is the U.S. government's official web portal to all federal, state and local government web resources and services.